Flag for Nigeria Weather past 2 weeks in Lagos, Nigeria

Now
77 °F

Scattered clouds.


Feels Like: 78 °F
Forecast: 74 / 87 °F
Wind: 2 mph from North

Location: Lagos / Ikeja

Current Time: Jul 8, 2015 at 7:41:59 AM

Latest Report: Jul 8, 2015 at 7:00 AM


Visibility: 2 mi

Pressure: 29.86 "Hg

Humidity: 94%

Dew point: 75 °F

Location of LagosLocation

Historic Weather in Lagos — Graph

°F

Lagos temperature yesterday

Maximum temperature yesterday: 88 °F (at 3:00 PM)
Minimum temperature yesterday: 75 °F (at 2:00 AM)
Average temperature yesterday: 80 °F

Past Weeks' High & Low Weather Summary

 TemperatureHumidityPressure
High88 °F (Jun 24, 4:00 PM)100% (Jun 23, 7:00 AM)30.04 "Hg (Jun 23, 7:00 AM)
Low73 °F (Jul 2, 2:00 PM)66% (Jun 23, 1:00 PM)29.80 "Hg (Jul 6, 5:00 PM)
Average79 °F88%29.92 "Hg
* Reported Jun 23 7:00 AM — Jul 8 6:00 AM, Lagos, Weather by CustomWeather, © 2015

Note: Actual official high and low records may vary slightly from our data, if they occured in-between our weather recording intervals... More about our weather records

Advertising

Lagos weather history for previous 24 hours

 ConditionsComfort  
Time TempWeatherWind HumidityBarometerVisibility
6:00 AM
Wed, Jul 8
77 °FPassing clouds.2 mph94%29.83 "Hg4 mi
5:00 AM77 °FPassing clouds.2 mph100%29.83 "Hg5 mi
4:00 AM77 °FPassing clouds.2 mph94%29.83 "Hg5 mi
3:00 AM77 °FPassing clouds.No wind94%29.83 "Hg5 mi
2:00 AM77 °FPassing clouds.No wind94%29.86 "Hg5 mi
1:00 AM79 °FPassing clouds.2 mph94%29.86 "Hg5 mi
12:00 AM79 °FPassing clouds.2 mph94%29.89 "Hg5 mi
11:00 PM
Tue, Jul 7
79 °FPassing clouds.2 mph89%29.86 "HgN/A
10:00 PM79 °FPassing clouds.2 mph94%29.86 "HgN/A
9:00 PM79 °FPassing clouds.3 mph89%29.86 "HgN/A
8:00 PM81 °FPassing clouds.5 mph84%29.83 "HgN/A
7:00 PM82 °FScattered clouds.7 mph79%29.80 "HgN/A
6:00 PM86 °FScattered clouds.6 mph75%29.83 "HgN/A
5:00 PM86 °FPartly sunny.6 mph75%29.80 "HgN/A
4:00 PM86 °FPartly sunny.5 mph75%29.83 "HgN/A
3:00 PM88 °FPartly sunny.7 mph70%29.86 "HgN/A
2:00 PM86 °FPartly sunny.2 mph75%29.89 "HgN/A
1:00 PM82 °FPartly sunny.3 mph84%29.89 "HgN/A
12:00 PM82 °FPartly sunny.6 mph84%29.92 "Hg4 mi
11:00 AM82 °FPartly sunny.3 mph84%29.92 "HgN/A
10:00 AM82 °FPartly sunny.5 mph84%29.92 "HgN/A
9:00 AM81 °FScattered clouds.3 mph89%29.92 "HgN/A
8:00 AM79 °FScattered clouds.No wind94%29.89 "Hg4 mi
7:00 AM75 °FScattered clouds.No wind100%29.89 "Hg4 mi
Weather by CustomWeather, © 2015

See weather overviewHow to use our weather pages